DW5686 Weather Reports


Display with metric or nautical units.
time (UTC)temp
F
wind
direction
speed
MPH
gust
MPH
rain 1hr
in
rain 24hr
in
rain mn
in
humidity
%
barometer
mb
20260505114003 55 171 4.0 7.0 0.00 0.00 0.00 77 1016.4
20260505113503 55 174 3.0 6.0 0.00 0.00 0.00 78 1016.3
20260505113004 54 159 2.0 5.0 0.00 0.00 0.00 79 1016.3
20260505112503 54 159 2.0 3.0 0.00 0.00 0.00 81 1016.3
20260505112003 53 159 1.0 3.0 0.00 0.00 0.00 82 1016.3
20260505111503 52 223 2.0 2.0 0.00 0.00 0.00 82 1016.1
20260505111004 52 223 0.0 2.0 0.00 0.00 0.00 83 1016.2
20260505110503 52 223 1.0 2.0 0.00 0.00 0.00 83 1016.1
20260505102004 53 223 0.0 3.0 0.00 0.00 0.00 79 1016.0
20260505101525 53 223 1.0 3.0 0.00 0.00 0.00 78 1016.0
20260505101003 54 226 1.0 3.0 0.00 0.00 0.00 78 1016.0
20260505100504 54 255 1.0 3.0 0.00 0.00 0.00 77 1015.9
20260505100004 54 270 1.0 4.0 0.00 0.00 0.00 77 1015.8
20260505095503 54 275 0.0 5.0 0.00 0.00 0.00 76 1015.8
20260505095003 54 220 2.0 5.0 0.00 0.00 0.00 76 1015.8
20260505094504 54 234 1.0 5.0 0.00 0.00 0.00 76 1015.7
20260505094025 54 234 1.0 6.0 0.00 0.00 0.00 76 1015.7
20260505093504 55 223 1.0 6.0 0.00 0.00 0.00 75 1015.6
20260505093004 55 200 1.0 5.0 0.00 0.00 0.00 74 1015.5
20260505092524 55 195 0.0 5.0 0.00 0.00 0.00 74 1015.6
20260505092003 56 160 0.0 5.0 0.00 0.00 0.00 72 1015.5
20260505091503 56 219 0.0 7.0 0.00 0.00 0.00 72 1015.4
20260505091003 56 232 2.0 7.0 0.00 0.00 0.00 71 1015.3
20260505090525 56 222 2.0 7.0 0.00 0.00 0.00 71 1015.3
20260505090004 57 225 2.0 7.0 0.00 0.00 0.00 70 1015.3
20260505085504 57 212 2.0 9.0 0.00 0.00 0.00 70 1015.2
20260505085004 57 236 3.0 9.0 0.00 0.00 0.00 70 1015.2
20260505084503 57 218 2.0 7.0 0.00 0.00 0.00 70 1015.1
20260505084004 57 216 1.0 7.0 0.00 0.00 0.00 69 1015.1
20260505083503 57 234 2.0 7.0 0.00 0.00 0.00 69 1015.0
20260505083003 57 228 1.0 7.0 0.00 0.00 0.00 68 1015.0
20260505082503 58 171 3.0 9.0 0.00 0.00 0.00 68 1014.9
20260505082004 57 184 4.0 9.0 0.00 0.00 0.00 68 1015.0
20260505081524 57 163 3.0 7.0 0.00 0.00 0.00 69 1015.0
20260505081003 56 159 3.0 7.0 0.00 0.00 0.00 69 1015.0
20260505080504 57 192 1.0 5.0 0.00 0.00 0.00 68 1014.9
20260505080003 57 168 3.0 6.0 0.00 0.00 0.00 68 1015.0
20260505075503 57 156 1.0 6.0 0.00 0.00 0.00 67 1015.0
20260505075004 58 192 2.0 8.0 0.00 0.00 0.00 67 1015.0
20260505074503 58 165 3.0 8.0 0.00 0.00 0.00 65 1014.9
20260505074024 58 161 2.0 8.0 0.00 0.00 0.00 65 1014.9
20260505073503 58 175 3.0 8.0 0.00 0.00 0.00 64 1014.9
20260505073003 58 166 4.0 7.0 0.00 0.00 0.00 64 1014.8
20260505072503 58 165 4.0 8.0 0.00 0.00 0.00 64 1014.8
20260505072002 58 166 4.0 8.0 0.00 0.00 0.00 64 1014.9
20260505071503 58 189 2.0 6.0 0.00 0.00 0.00 63 1014.9
20260505071003 59 175 4.0 6.0 0.00 0.00 0.00 62 1014.8
20260505070502 59 149 2.0 5.0 0.00 0.00 0.00 62 1014.9
20260505070002 59 181 2.0 7.0 0.00 0.00 0.00 61 1014.9
20260505065502 59 173 2.0 7.0 0.00 0.00 0.00 61 1014.9
20260505065002 59 189 3.0 7.0 0.00 0.00 0.00 61 1014.9
20260505064502 59 205 2.0 7.0 0.00 0.00 0.00 60 1014.9
20260505064002 60 203 2.0 6.0 0.00 0.00 0.00 60 1014.8
20260505063502 60 181 3.0 10.0 0.00 0.00 0.00 59 1014.9
20260505063002 60 175 2.0 10.0 0.00 0.00 0.00 59 1014.9
20260505062503 60 170 2.0 6.0 0.00 0.00 0.00 58 1014.9
20260505062024 60 181 3.0 9.0 0.00 0.00 0.00 58 1014.9
20260505061503 61 198 4.0 9.0 0.00 0.00 0.00 57 1015.0
20260505061002 61 209 4.0 9.0 0.00 0.00 0.00 57 1014.9
20260505060503 61 179 5.0 9.0 0.00 0.00 0.00 56 1014.9
20260505060002 61 188 3.0 8.0 0.00 0.00 0.00 56 1014.9
20260505055502 62 150 2.0 8.0 0.00 0.00 0.00 55 1014.9
20260505055002 62 172 3.0 12.0 0.00 0.00 0.00 55 1015.0
20260505054502 62 192 5.0 13.0 0.00 0.00 0.00 53 1014.9
20260505054002 62 175 3.0 13.0 0.00 0.00 0.00 53 1014.9
20260505053524 62 181 5.0 13.0 0.00 0.00 0.00 52 1015.0
20260505053003 62 180 5.0 16.0 0.00 0.00 0.00 51 1015.0
20260505052524 63 180 5.0 16.0 0.00 0.00 0.00 51 1015.0
20260505052003 63 169 8.0 13.0 0.00 0.00 0.00 50 1015.1
20260505051503 63 169 4.0 13.0 0.00 0.00 0.00 49 1015.1
20260505051003 63 163 5.0 13.0 0.00 0.00 0.00 48 1015.1
20260505050502 63 177 7.0 13.0 0.00 0.00 0.00 48 1015.0
20260505041502 62 183 3.0 8.0 0.00 0.00 0.00 46 1015.0
20260505041002 62 180 3.0 6.0 0.00 0.00 0.00 47 1015.0
20260505040502 63 180 2.0 5.0 0.00 0.00 0.00 46 1015.0
20260505040003 63 225 2.0 5.0 0.00 0.00 0.00 46 1015.0
20260505035502 63 159 2.0 7.0 0.00 0.00 0.00 45 1015.1
20260505035002 64 153 2.0 9.0 0.00 0.00 0.00 46 1015.0
20260505034503 64 218 3.0 9.0 0.00 0.00 0.00 45 1015.0
20260505034003 64 186 3.0 9.0 0.00 0.00 0.00 45 1015.0
20260505033502 64 200 3.0 7.0 0.00 0.00 0.00 45 1015.0
20260505033002 63 184 2.0 7.0 0.00 0.00 0.00 45 1015.1
20260505032503 63 212 3.0 7.0 0.00 0.00 0.00 46 1015.1
20260505032003 63 136 2.0 7.0 0.00 0.00 0.00 46 1015.1
20260505031502 63 224 2.0 7.0 0.00 0.00 0.00 45 1015.1
20260505031002 63 176 4.0 7.0 0.00 0.00 0.00 45 1015.0
20260505030502 62 162 3.0 7.0 0.00 0.00 0.00 46 1015.0
20260505030002 62 151 2.0 6.0 0.00 0.00 0.00 47 1015.0
20260505025524 62 158 2.0 6.0 0.00 0.00 0.00 47 1015.0
20260505025023 62 160 0.0 9.0 0.00 0.00 0.00 48 1015.0
20260505024524 62 140 2.0 9.0 0.00 0.00 0.00 47 1015.0
20260505024024 61 117 2.0 6.0 0.00 0.00 0.00 49 1015.0
20260505023502 61 157 2.0 6.0 0.00 0.00 0.00 48 1015.0
20260505023003 62 149 2.0 6.0 0.00 0.00 0.00 48 1014.8
20260505022502 62 153 1.0 4.0 0.00 0.00 0.00 48 1014.9
20260505022002 62 153 1.0 4.0 0.00 0.00 0.00 48 1014.8
20260505021503 62 154 0.0 3.0 0.00 0.00 0.00 47 1014.8
20260505021024 63 154 1.0 5.0 0.00 0.00 0.00 47 1014.8
20260505020503 63 154 2.0 5.0 0.00 0.00 0.00 46 1014.8
20260505020023 63 154 2.0 3.0 0.00 0.00 0.00 45 1014.7
20260505015502 64 0 0.0 2.0 0.00 0.00 0.00 44 1014.6
20260505015003 64 154 0.0 2.0 0.00 0.00 0.00 44 1014.7
20260505014503 65 154 1.0 2.0 0.00 0.00 0.00 43 1014.6
20260505014002 65 154 1.0 3.0 0.00 0.00 0.00 43 1014.6
20260505013503 66 154 1.0 3.0 0.00 0.00 0.00 41 1014.5
20260505013002 66 154 1.0 5.0 0.00 0.00 0.00 41 1014.5
20260505012503 66 161 2.0 6.0 0.00 0.00 0.00 39 1014.4
20260505012003 67 141 3.0 6.0 0.00 0.00 0.00 38 1014.4
20260505011503 67 162 1.0 7.0 0.00 0.00 0.00 38 1014.3
20260505011023 68 149 2.0 7.0 0.00 0.00 0.00 37 1014.3
20260505010503 68 147 4.0 7.0 0.00 0.00 0.00 37 1014.2
20260505010023 68 159 3.0 5.0 0.00 0.00 0.00 37 1014.2
20260505005525 69 154 3.0 7.0 0.00 0.00 0.00 36 1014.2
20260505005002 69 157 3.0 7.0 0.00 0.00 0.00 35 1014.0
20260505004502 70 146 3.0 7.0 0.00 0.00 0.00 35 1013.9
20260505004003 70 154 2.0 7.0 0.00 0.00 0.00 34 1013.9
20260505003503 70 161 5.0 7.0 0.00 0.00 0.00 34 1013.9
20260505003002 70 154 5.0 7.0 0.00 0.00 0.00 33 1013.7
20260505002502 71 165 4.0 7.0 0.00 0.00 0.00 33 1013.7
20260505002002 71 195 1.0 7.0 0.00 0.00 0.00 33 1013.7
20260505001524 72 218 3.0 7.0 0.00 0.00 0.00 32 1013.6
20260505001003 72 200 2.0 8.0 0.00 0.00 0.00 32 1013.7
20260505000523 73 161 4.0 9.0 0.00 0.00 0.00 31 1013.7
20260505000003 73 177 4.0 9.0 0.00 0.00 0.00 30 1013.6
20260504235504 73 181 3.0 9.0 0.00 0.00 0.00 30 1013.6
20260504235002 73 194 3.0 10.0 0.00 0.00 0.00 30 1013.5
20260504234524 74 165 3.0 10.0 0.00 0.00 0.00 29 1013.4
20260504234002 74 173 4.0 9.0 0.00 0.00 0.00 29 1013.3
20260504233502 74 150 4.0 9.0 0.00 0.00 0.00 29 1013.3
20260504233003 74 161 2.0 8.0 0.00 0.00 0.00 28 1013.1
20260504232503 75 169 5.0 8.0 0.00 0.00 0.00 28 1013.2
20260504232003 75 157 6.0 12.0 0.00 0.00 0.00 28 1013.2
20260504231503 75 183 5.0 12.0 0.00 0.00 0.00 28 1013.1
20260504231003 75 164 3.0 12.0 0.00 0.00 0.00 28 1013.2
20260504230502 75 180 3.0 11.0 0.00 0.00 0.00 28 1013.2
20260504230002 75 166 6.0 11.0 0.00 0.00 0.00 28 1013.1
20260504225503 75 186 4.0 10.0 0.00 0.00 0.00 28 1013.1
20260504225023 75 174 5.0 8.0 0.00 0.00 0.00 28 1013.1
20260504224504 75 170 5.0 17.0 0.00 0.00 0.00 27 1013.2
20260504224004 76 167 5.0 17.0 0.00 0.00 0.00 27 1013.2
20260504223503 76 179 7.0 15.0 0.00 0.00 0.00 26 1013.2
20260504223024 76 164 7.0 13.0 0.00 0.00 0.00 26 1013.3
20260504222502 76 166 8.0 13.0 0.00 0.00 0.00 26 1013.2
20260504222002 76 161 5.0 9.0 0.00 0.00 0.00 27 1013.3
20260504221502 76 210 4.0 10.0 0.00 0.00 0.00 26 1013.2
20260504221002 76 208 4.0 12.0 0.00 0.00 0.00 27 1013.2
20260504220502 76 177 8.0 12.0 0.00 0.00 0.00 26 1013.2
20260504220003 76 174 6.0 12.0 0.00 0.00 0.00 26 1013.4
20260504215502 76 193 4.0 11.0 0.00 0.00 0.00 26 1013.4
20260504215003 76 178 4.0 13.0 0.00 0.00 0.00 26 1013.2
20260504214524 76 195 5.0 13.0 0.00 0.00 0.00 27 1013.3
20260504214002 76 234 4.0 11.0 0.00 0.00 0.00 26 1013.3
20260504213523 77 179 4.0 16.0 0.00 0.00 0.00 27 1013.2
20260504213003 78 156 9.0 16.0 0.00 0.00 0.00 27 1013.2
20260504212503 78 154 5.0 11.0 0.00 0.00 0.00 26 1013.3
20260504212003 78 176 3.0 16.0 0.00 0.00 0.00 26 1013.3
20260504211524 78 208 5.0 16.0 0.00 0.00 0.00 24 1013.3
20260504211002 78 201 6.0 15.0 0.00 0.00 0.00 23 1013.3
20260504210504 79 196 5.0 22.0 0.00 0.00 0.00 24 1013.4
20260504210003 79 155 8.0 22.0 0.00 0.00 0.00 23 1013.4
20260504205503 79 206 2.0 20.0 0.00 0.00 0.00 24 1013.4
20260504205024 79 169 9.0 17.0 0.00 0.00 0.00 25 1013.4
20260504204504 79 178 5.0 12.0 0.00 0.00 0.00 24 1013.6
20260504204004 79 161 3.0 14.0 0.00 0.00 0.00 25 1013.6
20260504203524 79 199 5.0 14.0 0.00 0.00 0.00 24 1013.7
20260504203003 79 171 5.0 12.0 0.00 0.00 0.00 25 1013.7
20260504202503 79 193 5.0 13.0 0.00 0.00 0.00 26 1013.8
20260504202004 79 179 4.0 13.0 0.00 0.00 0.00 24 1013.7
20260504201504 79 154 6.0 13.0 0.00 0.00 0.00 24 1013.9
20260504201003 79 186 4.0 10.0 0.00 0.00 0.00 27 1014.0
20260504200524 79 179 6.0 12.0 0.00 0.00 0.00 28 1014.0
20260504200002 79 175 6.0 14.0 0.00 0.00 0.00 27 1014.1
20260504195503 79 169 10.0 14.0 0.00 0.00 0.00 26 1014.2
20260504195002 78 175 3.0 14.0 0.00 0.00 0.00 24 1014.2
20260504194504 79 169 8.0 14.0 0.00 0.00 0.00 25 1014.1
20260504194003 79 154 6.0 12.0 0.00 0.00 0.00 26 1014.2
20260504193503 79 163 4.0 12.0 0.00 0.00 0.00 23 1014.4
20260504193003 79 155 8.0 12.0 0.00 0.00 0.00 25 1014.4
20260504192502 78 150 7.0 12.0 0.00 0.00 0.00 27 1014.4
20260504192002 78 175 6.0 12.0 0.00 0.00 0.00 24 1014.7
20260504191504 78 186 5.0 10.0 0.00 0.00 0.00 24 1014.7
20260504191024 79 199 5.0 13.0 0.00 0.00 0.00 25 1014.7
20260504190503 79 191 7.0 13.0 0.00 0.00 0.00 26 1014.7
20260504190003 78 210 2.0 10.0 0.00 0.00 0.00 28 1014.8
20260504185503 76 328 2.0 15.0 0.00 0.00 0.00 28 1014.9
20260504185002 77 208 5.0 15.0 0.00 0.00 0.00 28 1015.0
20260504184503 78 205 3.0 12.0 0.00 0.00 0.00 27 1015.0
20260504184004 78 162 7.0 12.0 0.00 0.00 0.00 28 1015.1
20260504183502 78 66 4.0 10.0 0.00 0.00 0.00 27 1015.0
20260504183025 77 201 5.0 10.0 0.00 0.00 0.00 27 1015.1
20260504182503 77 36 2.0 12.0 0.00 0.00 0.00 24 1015.2
20260504182003 77 181 6.0 12.0 0.00 0.00 0.00 28 1015.3
20260504181503 77 172 5.0 11.0 0.00 0.00 0.00 27 1015.2
20260504181003 77 176 7.0 12.0 0.00 0.00 0.00 28 1015.3
20260504180524 77 145 3.0 13.0 0.00 0.00 0.00 28 1015.3
20260504180003 76 161 7.0 13.0 0.00 0.00 0.00 31 1015.3
20260504175504 74 129 3.0 10.0 0.00 0.00 0.00 31 1015.3
20260504175004 75 168 3.0 14.0 0.00 0.00 0.00 30 1015.4
20260504174524 76 167 7.0 14.0 0.00 0.00 0.00 30 1015.6
20260504174002 75 150 4.0 11.0 0.00 0.00 0.00 28 1015.6
20260504173524 76 171 4.0 11.0 0.00 0.00 0.00 31 1015.7
20260504173003 75 178 3.0 7.0 0.00 0.00 0.00 31 1015.9
20260504172503 74 214 2.0 10.0 0.00 0.00 0.00 29 1015.9
20260504172024 75 179 5.0 11.0 0.00 0.00 0.00 31 1016.0
20260504171504 75 173 7.0 11.0 0.00 0.00 0.00 32 1015.9
20260504171004 74 182 5.0 10.0 0.00 0.00 0.00 30 1015.9
20260504170504 74 156 3.0 7.0 0.00 0.00 0.00 33 1016.0
20260504151004 69 168 2.0 6.0 0.00 0.00 0.00 40 1017.0
20260504150503 69 221 2.0 7.0 0.00 0.00 0.00 40 1016.9
20260504141003 65 61 2.0 4.0 0.00 0.00 0.00 50 1017.2
20260504140503 64 63 2.0 4.0 0.00 0.00 0.00 49 1017.2
20260504130504 58 20 1.0 3.0 0.00 0.00 0.00 64 1017.3